User: anonymous   Login
Location: Lake Superior Provincial Park
(47.3335°N, 84.6162°W)
Time: 12:04:15
(UTC-04:00)
Language:

Cosmos 2333 Rocket - Orbit

View from above orbital plane
View from above orbital plane
View from above satellite
View from above satellite

Ground track
Ground track

The orbit data is extracted from the following two-line orbital elements,

1 24298U 96051B   17179.76597635 -.00000063 +00000-0 -80245-5 0  9994
2 24298 070.8510 037.7037 0016767 175.4179 184.7098 14.12498721073192
Epoch (UTC): 28 June 2017 18:23:00
Eccentricity: 0.0016767
inclination: 70.8510°
perigee height: 839 km
apogee height: 863 km
right ascension of ascending node: 37.7037°
argument of perigee: 175.4179°
revolutions per day: 14.12498721
mean anomaly at epoch: 184.7098°
orbit number at epoch: 7319

The dashed part of the orbit path shows where the satellite is in the earth's shadow,  

DLR